OPS 4682 DEB, 20048

Orbit data source: Space-Track

OPS 4682 DEB, 20048 is space debris in LEO originally from a launch on Sat, 03 Apr 1965 UTC launched from the Air Force Western Test Range (AFWTR). Debris objects in space refer to the collection of defunct objects orbiting the Earth. Examples of debris include non-operational satellites, rocket bodies, and fragments generated from explosions, collisions, or faulty payload assembly.

Loading next visibility...
Identifier
20048, 1965-027BC
Orbit
LEO
Country
Flag of USUS
Related business
Manufacturer
Unknown
Mission
Spacecraft
Bus & Motor
Unknown
Mass
Unknown
Launch date (UTC)
1965-04-03 (61 years ago)
Launch vehicle
Unknown
Launch site
Air Force Western Test Range (AFWTR)
Object type
Payload
Rocket body
Debris
Shape & HBR
Unknown shape, 0.1 m
Radar Cross Section
Small (<0.1 m²)

Expand to show TLE details & history
Last TLE update: 1 week ago

TLE from 1 week ago
0 OPS 4682 DEB
1 20048U 65027BC  26111.91952206  .00000352  00000-0  11143-2 0  9991
2 20048  90.2534 353.1000 0031819  28.5436 351.2006 13.01678357609048
Epoch: 2026-04-21T22:04Z
TLE epoch observation values (Epoch: 2026-04-21T22:04:06.705Z)
Latitude
19.68743°
Longitude
171.99346°
Altitude
1,233.978 km
Speed
7.251 km/s
True Right ascension
23h 32m 02s
True Declination
19° 35' 08"
Sunlit
Object was in daylight at epoch
Visualization orbit readout
Latitude
Unknown
Longitude
Unknown
Altitude
Unknown
Speed
Unknown
Apparent Right ascension
Unknown
Apparent Declination
Unknown
Sunlit
N/A
Visualization observer readout
Local Sidereal Time
04:40:43
Azimuth
Unknown
Elevation
Unknown
Doppler factor
Unknown
Orbital elements
Apogee altitude
1,276.923 km
Perigee altitude
1,228.362 km
Semi-major axis
7,630.779 km
Eccentricity
0.00318
Inclination
90.2534°
RAAN
353.1°
Arg. of periapsis
28.5436°
True anomaly
351.1446°
Mean anomaly
351.2006°
Eccentric anomaly
351.17262°
Mean motion
3.25604 °/min
Orbital period
110.56 mins
BSTAR
0.0011143
Loading maneuver chart data...
Computing Atmospheric mass density...
Loading historical data...
Loading historical data...
Loading historical data...
Loading historical data...
Loading historical data...
Loading historical data...
Loading historical data...

Documentation

Showing up to 5 results
|